Longview, TX

7:53 PM CDT on September 24, 2017 (GMT -0500)
Gregg County

Weather History for KGGG - July, 2013

Change the Weather History Date:

Saturday, July 20, 2013

  Actual Average Record
Temperature  
Mean Temperature 82 °F 84 °F  
Max Temperature 93 °F 94 °F 105 °F (1939)
Min Temperature 70 °F 74 °F 64 °F (1910)
Degree Days  
Heating Degree Days 0 0  
Month to date heating degree days 0 0  
Since 1 June heating degree days 0 0  
Since 1 July heating degree days 0 0  
Cooling Degree Days 17 19  
Month to date cooling degree days 338 367  
Year to date cooling degree days 1242 1185  
Since 1 June cooling degree days 854 806  
Growing Degree Days 31 (Base 50)    
Moisture  
Dew Point 69 °F    
Average Humidity 69    
Maximum Humidity 93    
Minimum Humidity 44    
Precipitation  
Precipitation 0.00 in 0.09 in 2.70 in (1917)
Month to date precipitation 1.11 2.14  
Year to date precipitation 19.26 26.88  
Snow  
Snow 0.00 in - - ()
Month to date snowfall 0.0  
Since 1 June snowfall 0.0  
Since 1 July snowfall 0.0  
Snow Depth 0.00 in    
Sea Level Pressure  
Sea Level Pressure 29.93 in    
Wind  
Wind Speed 4 mph (South)    
Max Wind Speed 25 mph    
Max Gust Speed 30 mph    
Visibility 10 miles    
Events      
T = Trace of Precipitation, MM = Missing Value Source: NWS Daily Summary

Daily Weather History Graph

Daily Weather History Graph

Search for Another Location

Airport or City:

Trip Planner

Search our weather history database for the weather conditions in past years. The results will help you decide how hot, cold, wet, or windy it might be!

Date:

Astronomy

Jul. 20, 2013 Rise Set
Actual Time 6:25 AM CDT 8:24 PM CDT
Civil Twilight 5:58 AM CDT 8:51 PM CDT
Nautical Twilight 5:24 AM CDT 9:25 PM CDT
Astronomical Twilight 4:49 AM CDT 10:00 PM CDT
Moon 6:29 PM CDT (7/20) 4:06 AM CDT (7/20)
Length of Visible Light 14h 53m
Length of Day
13h 58m
Waxing Gibbous, 94% of the Moon is Illuminated
Jul 20
Waxing Gibbous
Jul 22
Full
Jul 29
Last Quarter
Aug 6
New
Aug 14
First Quarter

Hourly Weather History & Observations

Time (CDT) Temp. Heat Index Dew Point Humidity Pressure Visibility Wind Dir Wind Speed Gust Speed Precip Events Conditions
12:53 AM 73.0 °F - 70.0 °F 90% 29.97 in 10.0 mi NW 3.5 mph - N/A   Clear
1:53 AM 73.9 °F - 70.0 °F 87% 29.98 in 10.0 mi Calm Calm - N/A   Clear
2:53 AM 73.9 °F - 70.0 °F 87% 29.96 in 10.0 mi Calm Calm - N/A   Clear
3:53 AM 73.0 °F - 70.0 °F 90% 29.97 in 10.0 mi Calm Calm - N/A   Clear
4:53 AM 71.1 °F - 68.0 °F 90% 29.97 in 10.0 mi WNW 3.5 mph - N/A   Mostly Cloudy
5:53 AM 71.1 °F - 68.0 °F 90% 29.97 in 10.0 mi Calm Calm - N/A   Clear
6:53 AM 71.1 °F - 68.0 °F 90% 29.97 in 8.0 mi Calm Calm - N/A   Clear
7:53 AM 73.9 °F - 70.0 °F 87% 29.96 in 10.0 mi Calm Calm - N/A   Clear
8:53 AM 79.0 °F - 71.1 °F 77% 29.96 in 10.0 mi Variable 4.6 mph - N/A   Clear
9:53 AM 84.0 °F 89.0 °F 71.1 °F 65% 29.96 in 10.0 mi West 5.8 mph - N/A   Clear
10:53 AM 84.0 °F 88.4 °F 70.0 °F 63% 29.96 in 10.0 mi WSW 5.8 mph - N/A   Partly Cloudy
11:53 AM 86.0 °F 88.8 °F 66.9 °F 53% 29.96 in 10.0 mi Calm Calm - N/A   Mostly Cloudy
12:53 PM 88.0 °F 92.9 °F 70.0 °F 55% 29.95 in 10.0 mi Calm Calm - N/A   Scattered Clouds
1:53 PM 89.1 °F 93.7 °F 69.1 °F 52% 29.92 in 10.0 mi Calm Calm - N/A   Mostly Cloudy
2:53 PM 91.0 °F 94.3 °F 66.9 °F 45% 29.90 in 10.0 mi East 3.5 mph - N/A   Clear
3:53 PM 91.0 °F 95.2 °F 68.0 °F 47% 29.88 in 10.0 mi SE 8.1 mph - N/A   Mostly Cloudy
4:53 PM 91.0 °F 93.8 °F 66.0 °F 44% 29.87 in 10.0 mi SSE 8.1 mph - N/A   Clear
5:53 PM 90.0 °F 91.7 °F 64.9 °F 43% 29.86 in 10.0 mi SSE 10.4 mph 16.1 mph N/A   Mostly Cloudy
6:53 PM 82.9 °F 87.0 °F 70.0 °F 65% 29.87 in 10.0 mi South 12.7 mph 19.6 mph N/A   Clear
7:53 PM 81.0 °F 84.1 °F 69.1 °F 67% 29.88 in 10.0 mi South 5.8 mph - N/A   Clear
8:53 PM 78.1 °F - 70.0 °F 76% 29.89 in 10.0 mi South 5.8 mph - N/A   Clear
9:53 PM 77.0 °F - 70.0 °F 79% 29.91 in 10.0 mi SSE 5.8 mph - N/A   Clear
10:53 PM 75.9 °F - 71.1 °F 85% 29.92 in 10.0 mi South 5.8 mph - N/A   Clear
11:53 PM 73.9 °F - 71.1 °F 91% 29.92 in 10.0 mi South 5.8 mph - N/A   Clear